EN

Hourly Weather La Cruz

Today, 25 July, Sunday

Time Temperature Precipitation Wind Pressure Humidity
00:00 +12°C° 0 mm 1 mps 577 mmHg 88%
01:00 +12°C° 0 mm 1 mps 577 mmHg 87%
02:00 +12°C° 0 mm 1 mps 576 mmHg 88%
03:00 +11°C° 0 mm 1 mps 576 mmHg 88%
04:00 +11°C° 0 mm 1 mps 576 mmHg 88%
05:00 +11°C° 0 mm 1 mps 576 mmHg 87%
06:00 +12°C° 0 mm 1 mps 576 mmHg 86%
07:00 +12°C° 0 mm 1 mps 576 mmHg 85%
08:00 +13°C° 0 mm 1 mps 577 mmHg 81%
09:00 +14°C° 0 mm 1 mps 578 mmHg 77%
10:00 +16°C° 0 mm 1 mps 578 mmHg 73%
11:00 +18°C° 0.2 mm 1 mps 578 mmHg 70%
12:00 +19°C° 0.2 mm 1 mps 578 mmHg 66%
13:00 +19°C° 0.2 mm 2 mps 578 mmHg 62%
14:00 +18°C° 0.5 mm 2 mps 578 mmHg 67%
15:00 +18°C° 0.5 mm 1 mps 577 mmHg 72%
16:00 +16°C° 0.5 mm 1 mps 576 mmHg 76%
17:00 +15°C° 0.3 mm 1 mps 576 mmHg 81%
18:00 +13°C° 0.3 mm 1 mps 576 mmHg 86%
19:00 +12°C° 0.3 mm 1 mps 576 mmHg 91%
20:00 +12°C° 0.1 mm 1 mps 576 mmHg 90%
21:00 +12°C° 0.1 mm 1 mps 577 mmHg 88%
22:00 +12°C° 0.1 mm 1 mps 577 mmHg 87%
23:00 +12°C° 0 mm 1 mps 577 mmHg 87%

Tomorrow, 26 July, Monday

Time Temperature Precipitation Wind Pressure Humidity
00:00 +11°C° 0 mm 1 mps 576 mmHg 87%
01:00 +11°C° 0 mm 1 mps 576 mmHg 87%
02:00 +11°C° 0 mm 1 mps 576 mmHg 87%
03:00 +11°C° 0 mm 1 mps 575 mmHg 88%
04:00 +11°C° 0 mm 1 mps 575 mmHg 89%
05:00 +11°C° 0 mm 1 mps 575 mmHg 87%
06:00 +11°C° 0 mm 1 mps 576 mmHg 86%
07:00 +12°C° 0 mm 1 mps 576 mmHg 84%
08:00 +13°C° 0 mm 1 mps 577 mmHg 80%
09:00 +15°C° 0 mm 1 mps 578 mmHg 75%
10:00 +16°C° 0 mm 1 mps 578 mmHg 71%
11:00 +18°C° 0.1 mm 1 mps 578 mmHg 68%
12:00 +18°C° 0.1 mm 1 mps 578 mmHg 66%
13:00 +19°C° 0.1 mm 1 mps 578 mmHg 63%
14:00 +19°C° 0.1 mm 1 mps 578 mmHg 65%
15:00 +18°C° 0.1 mm 2 mps 577 mmHg 66%
16:00 +18°C° 0.1 mm 2 mps 576 mmHg 67%
17:00 +16°C° 0.4 mm 2 mps 576 mmHg 75%
18:00 +14°C° 0.4 mm 2 mps 576 mmHg 82%
19:00 +13°C° 0.4 mm 2 mps 576 mmHg 90%
20:00 +12°C° 0.1 mm 1 mps 576 mmHg 90%
21:00 +12°C° 0.1 mm 1 mps 577 mmHg 89%
22:00 +11°C° 0.1 mm 1 mps 577 mmHg 88%
23:00 +11°C° 0 mm 1 mps 577 mmHg 88%

Day after tomorrow, 27 July, Tuesday

Time Temperature Precipitation Wind Pressure Humidity
00:00 +11°C° 0 mm 1 mps 576 mmHg 89%
01:00 +11°C° 0 mm 1 mps 576 mmHg 89%
02:00 +11°C° 0 mm 1 mps 576 mmHg 89%
03:00 +11°C° 0 mm 1 mps 575 mmHg 89%
04:00 +10°C° 0 mm 1 mps 575 mmHg 89%
05:00 +11°C° 0 mm 1 mps 576 mmHg 88%
06:00 +11°C° 0 mm 1 mps 576 mmHg 87%
07:00 +12°C° 0 mm 1 mps 577 mmHg 86%
08:00 +14°C° 0 mm 1 mps 577 mmHg 79%
09:00 +16°C° 0 mm 1 mps 578 mmHg 72%
10:00 +19°C° 0 mm 1 mps 579 mmHg 66%
11:00 +18°C° 0.2 mm 2 mps 579 mmHg 65%
12:00 +19°C° 0.2 mm 2 mps 579 mmHg 64%
13:00 +19°C° 0.2 mm 2 mps 578 mmHg 63%
14:00 +19°C° 0.7 mm 2 mps 578 mmHg 66%
15:00 +19°C° 0.7 mm 1 mps 577 mmHg 69%
16:00 +19°C° 0.7 mm 1 mps 577 mmHg 72%
17:00 +16°C° 0.9 mm 1 mps 576 mmHg 79%
18:00 +15°C° 0.9 mm 1 mps 576 mmHg 86%
19:00 +13°C° 0.9 mm 1 mps 576 mmHg 93%
20:00 +13°C° 0.3 mm 1 mps 576 mmHg 92%
21:00 +12°C° 0.3 mm 1 mps 577 mmHg 91%
22:00 +12°C° 0.3 mm 1 mps 577 mmHg 91%
23:00 +12°C° 0.1 mm 1 mps 577 mmHg 91%

28 July, Wednesday

Time Temperature Precipitation Wind Pressure Humidity
00:00 +12°C° 0.1 mm 1 mps 576 mmHg 92%
01:00 +12°C° 0.1 mm 1 mps 576 mmHg 92%
02:00 +12°C° 0.3 mm 1 mps 576 mmHg 92%
03:00 +12°C° 0.3 mm 1 mps 576 mmHg 93%
04:00 +12°C° 0.3 mm 1 mps 576 mmHg 93%
05:00 +12°C° 0.1 mm 1 mps 576 mmHg 92%
06:00 +12°C° 0.1 mm 1 mps 576 mmHg 92%
07:00 +13°C° 0.1 mm 1 mps 577 mmHg 91%
08:00 +14°C° 0.1 mm 1 mps 577 mmHg 88%
09:00 +15°C° 0.1 mm 1 mps 578 mmHg 84%
10:00 +16°C° 0.1 mm 1 mps 578 mmHg 80%
11:00 +18°C° 0.5 mm 1 mps 578 mmHg 77%
12:00 +19°C° 0.5 mm 1 mps 578 mmHg 74%
13:00 +18°C° 0.5 mm 2 mps 578 mmHg 70%
14:00 +19°C° 0.6 mm 1 mps 578 mmHg 72%
15:00 +18°C° 0.6 mm 1 mps 577 mmHg 74%
16:00 +18°C° 0.6 mm 1 mps 576 mmHg 76%
17:00 +15°C° 0.5 mm 1 mps 576 mmHg 81%
18:00 +14°C° 0.5 mm 1 mps 576 mmHg 86%
19:00 +13°C° 0.5 mm 1 mps 576 mmHg 90%
20:00 +12°C° 0.2 mm 1 mps 576 mmHg 90%
21:00 +12°C° 0.2 mm 2 mps 577 mmHg 90%
22:00 +12°C° 0.2 mm 2 mps 577 mmHg 90%
23:00 +12°C° 0 mm 2 mps 576 mmHg 89%

29 July, Thursday

Time Temperature Precipitation Wind Pressure Humidity
00:00 +10°C° 0 mm 2 mps 576 mmHg 89%
01:00 +10°C° 0 mm 2 mps 576 mmHg 89%
02:00 +10°C° 0 mm 2 mps 576 mmHg 88%
03:00 +10°C° 0 mm 2 mps 575 mmHg 88%
04:00 +10°C° 0 mm 2 mps 575 mmHg 88%
05:00 +10°C° 0 mm 2 mps 575 mmHg 87%
06:00 +12°C° 0 mm 2 mps 576 mmHg 86%
07:00 +12°C° 0 mm 2 mps 576 mmHg 85%
08:00 +14°C° 0 mm 2 mps 577 mmHg 78%
09:00 +16°C° 0 mm 2 mps 578 mmHg 71%
10:00 +18°C° 0 mm 2 mps 579 mmHg 64%
11:00 +19°C° 0.1 mm 2 mps 579 mmHg 63%
12:00 +19°C° 0.1 mm 2 mps 579 mmHg 61%
13:00 +20°C° 0.1 mm 2 mps 578 mmHg 60%
14:00 +20°C° 0.2 mm 2 mps 578 mmHg 61%
15:00 +19°C° 0.2 mm 2 mps 577 mmHg 63%
16:00 +20°C° 0.2 mm 1 mps 577 mmHg 64%
17:00 +17°C° 0.2 mm 2 mps 577 mmHg 71%
18:00 +15°C° 0.2 mm 2 mps 576 mmHg 78%
19:00 +13°C° 0.2 mm 2 mps 576 mmHg 85%
20:00 +13°C° 0.1 mm 2 mps 576 mmHg 86%
21:00 +12°C° 0.1 mm 2 mps 577 mmHg 86%
22:00 +12°C° 0.1 mm 2 mps 577 mmHg 86%
23:00 +12°C° 0 mm 2 mps 577 mmHg 87%

30 July, Friday

Time Temperature Precipitation Wind Pressure Humidity
00:00 +12°C° 0 mm 2 mps 576 mmHg 87%
01:00 +10°C° 0 mm 2 mps 576 mmHg 88%
02:00 +10°C° 0 mm 2 mps 576 mmHg 88%
03:00 +10°C° 0 mm 2 mps 576 mmHg 87%
04:00 +10°C° 0 mm 2 mps 576 mmHg 87%
05:00 +12°C° 0 mm 2 mps 576 mmHg 86%
06:00 +12°C° 0 mm 2 mps 576 mmHg 85%
07:00 +12°C° 0 mm 2 mps 577 mmHg 84%
08:00 +14°C° 0.1 mm 2 mps 578 mmHg 78%
09:00 +16°C° 0.1 mm 2 mps 578 mmHg 71%
10:00 +18°C° 0.1 mm 2 mps 579 mmHg 64%
11:00 +19°C° 0.2 mm 2 mps 579 mmHg 63%
12:00 +19°C° 0.2 mm 2 mps 579 mmHg 62%
13:00 +20°C° 0.2 mm 2 mps 578 mmHg 61%
14:00 +19°C° 0.3 mm 2 mps 578 mmHg 63%
15:00 +19°C° 0.3 mm 2 mps 577 mmHg 65%
16:00 +18°C° 0.3 mm 2 mps 577 mmHg 67%
17:00 +17°C° 0.3 mm 2 mps 577 mmHg 73%
18:00 +15°C° 0.3 mm 2 mps 577 mmHg 80%
19:00 +14°C° 0.3 mm 2 mps 577 mmHg 86%
20:00 +14°C° 0.1 mm 2 mps 577 mmHg 86%
21:00 +14°C° 0.1 mm 2 mps 577 mmHg 87%
22:00 +13°C° 0.1 mm 2 mps 578 mmHg 88%
23:00 +13°C° 0.4 mm 1 mps 577 mmHg 88%
Show more